Location: Sternwarte_Laufen
(47.9344°N, 12.9346°E)
Time: 00:35:25
(UTC+02:00)

ISS - Pass Details

Date: 20 July 2018
Orbit: 402 x 408 km, 51.6° (Epoch: 19 July)

Event Time Altitude Azimuth Distance (km) Brightness Sun altitude
Rises 22:08:52 0° 218° (SW) 2,309 -0.1 -9.9°
Reaches altitude 10° 22:11:04 10° 208° (SSW) 1,455 -1.2 -10.1°
Maximum altitude 22:13:59 31° 144° (SE) 738 -3.1 -10.5°
Drops below altitude 10° 22:16:56 10° 80° (E) 1,465 -1.3 -10.8°
Sets 22:19:09 0° 70° (ENE) 2,330 -0.2 -11.0°
